Time,TemperatureF,DewpointF,PressureIn,WindDirection,WindDirectionDegrees,WindSpeedMPH,WindSpeedGustMPH,Humidity,HourlyPrecipIn,Conditions,Clouds,dailyrainin,SoftwareType,DateUTC
2013-02-12 00:01:00,30.0,26.0,29.90,NE,45,0.0,2.0,85,0.00,,,0.00,,2013-02-12 06:01:00,
2013-02-12 00:12:00,30.0,26.0,29.90,East,81,0.0,2.0,86,0.00,,,0.00,,2013-02-12 06:12:00,
2013-02-12 00:21:00,30.0,26.0,29.90,East,81,0.0,2.0,86,0.00,,,0.00,,2013-02-12 06:21:00,
2013-02-12 00:32:00,30.0,26.0,29.90,South,181,0.0,2.0,86,0.00,,,0.00,,2013-02-12 06:32:00,
2013-02-12 00:42:00,30.0,26.0,29.90,SSE,155,0.0,2.0,86,0.00,,,0.00,,2013-02-12 06:42:00,
2013-02-12 00:51:00,30.0,26.0,29.90,SSE,155,0.0,2.0,86,0.00,,,0.00,,2013-02-12 06:51:00,
2013-02-12 01:01:00,30.0,26.0,29.90,NE,49,0.0,2.0,86,0.00,,,0.00,,2013-02-12 07:01:00,
2013-02-12 01:11:00,30.0,26.0,29.90,NE,49,0.0,2.0,86,0.00,,,0.00,,2013-02-12 07:11:00,
2013-02-12 01:21:00,30.0,27.0,29.91,South,181,0.0,2.0,87,0.00,,,0.00,,2013-02-12 07:21:00,
2013-02-12 01:31:00,30.0,26.0,29.91,ESE,117,2.0,3.0,86,0.00,,,0.00,,2013-02-12 07:31:00,
2013-02-12 01:41:00,30.0,26.0,29.91,ESE,117,2.0,3.0,86,0.00,,,0.00,,2013-02-12 07:41:00,
2013-02-12 01:52:00,30.0,26.0,29.90,ESE,113,2.0,2.0,86,0.00,,,0.00,,2013-02-12 07:52:00,
2013-02-12 02:01:00,30.0,26.0,29.91,SSE,150,1.0,2.0,86,0.00,,,0.00,,2013-02-12 08:01:00,
2013-02-12 02:11:00,30.0,26.0,29.91,SSE,150,1.0,2.0,86,0.00,,,0.00,,2013-02-12 08:11:00,
2013-02-12 02:21:00,30.0,26.0,29.90,SSE,165,1.0,3.0,86,0.00,,,0.00,,2013-02-12 08:21:00,
2013-02-12 02:31:00,30.0,26.0,29.89,SSW,199,2.0,4.0,85,0.00,,,0.00,,2013-02-12 08:31:00,
2013-02-12 02:41:00,30.0,26.0,29.89,SSW,199,2.0,4.0,85,0.00,,,0.00,,2013-02-12 08:41:00,
2013-02-12 02:52:00,30.0,26.0,29.90,South,179,1.0,4.0,85,0.00,,,0.00,,2013-02-12 08:52:00,
2013-02-12 03:01:00,30.0,26.0,29.89,SSE,147,1.0,3.0,86,0.00,,,0.00,,2013-02-12 09:01:00,
2013-02-12 03:11:00,30.0,26.0,29.89,SSE,147,1.0,3.0,86,0.00,,,0.00,,2013-02-12 09:11:00,
2013-02-12 03:21:00,30.0,26.0,29.90,South,172,1.0,2.0,86,0.00,,,0.00,,2013-02-12 09:21:00,
2013-02-12 03:32:00,29.0,26.0,29.90,SSE,151,0.0,3.0,87,0.00,,,0.00,,2013-02-12 09:32:00,
2013-02-12 03:42:00,29.0,26.0,29.90,SSE,151,0.0,3.0,87,0.00,,,0.00,,2013-02-12 09:42:00,
2013-02-12 03:51:00,28.0,25.0,29.89,East,88,0.0,2.0,87,0.00,,,0.00,,2013-02-12 09:51:00,
2013-02-12 04:01:00,28.0,25.0,29.90,North,0,0.0,0.0,88,0.00,,,0.00,,2013-02-12 10:01:00,
2013-02-12 04:11:00,28.0,25.0,29.89,North,0,0.0,0.0,88,0.00,,,0.00,,2013-02-12 10:11:00,
2013-02-12 04:21:00,28.0,25.0,29.89,North,0,0.0,0.0,88,0.00,,,0.00,,2013-02-12 10:21:00,
2013-02-12 04:31:00,28.0,25.0,29.90,North,0,0.0,0.0,88,0.00,,,0.00,,2013-02-12 10:31:00,
2013-02-12 04:43:00,28.0,25.0,29.90,North,0,0.0,0.0,88,0.00,,,0.00,,2013-02-12 10:43:00,
2013-02-12 04:51:00,27.0,24.0,29.89,North,0,0.0,0.0,89,0.00,,,0.00,,2013-02-12 10:51:00,
2013-02-12 05:01:00,27.0,24.0,29.89,North,0,0.0,0.0,89,0.00,,,0.00,,2013-02-12 11:01:00,
2013-02-12 05:11:00,27.0,24.0,29.89,North,0,0.0,0.0,89,0.00,,,0.00,,2013-02-12 11:11:00,
2013-02-12 05:21:00,26.0,23.0,29.89,North,0,0.0,0.0,89,0.00,,,0.00,,2013-02-12 11:21:00,
2013-02-12 05:31:00,27.0,24.0,29.89,NE,45,0.0,1.0,90,0.00,,,0.00,,2013-02-12 11:31:00,
2013-02-12 05:41:00,27.0,24.0,29.89,NE,45,0.0,1.0,90,0.00,,,0.00,,2013-02-12 11:41:00,
2013-02-12 05:52:00,26.0,23.0,29.89,North,0,0.0,0.0,90,0.00,,,0.00,,2013-02-12 11:52:00,
2013-02-12 06:01:00,26.0,23.0,29.89,North,0,0.0,0.0,90,0.00,,,0.00,,2013-02-12 12:01:00,
2013-02-12 06:11:00,26.0,23.0,29.89,North,0,0.0,0.0,90,0.00,,,0.00,,2013-02-12 12:11:00,
2013-02-12 06:21:00,26.0,23.0,29.89,North,0,0.0,0.0,90,0.00,,,0.00,,2013-02-12 12:21:00,
2013-02-12 06:32:00,26.0,24.0,29.90,NE,56,0.0,1.0,91,0.00,,,0.00,,2013-02-12 12:32:00,
2013-02-12 06:42:00,26.0,24.0,29.90,NE,56,0.0,1.0,91,0.00,,,0.00,,2013-02-12 12:42:00,
2013-02-12 06:52:00,26.0,24.0,29.90,North,0,0.0,0.0,91,0.00,,,0.00,,2013-02-12 12:52:00,
2013-02-12 07:01:00,26.0,24.0,29.89,NE,45,0.0,2.0,91,0.00,,,0.00,,2013-02-12 13:01:00,
2013-02-12 07:11:00,26.0,24.0,29.89,NE,45,0.0,2.0,91,0.00,,,0.00,,2013-02-12 13:11:00,
2013-02-12 07:22:00,26.0,24.0,29.90,NE,45,0.0,1.0,91,0.00,,,0.00,,2013-02-12 13:22:00,
2013-02-12 07:32:00,26.0,24.0,29.90,ESE,113,0.0,2.0,92,0.00,,,0.00,,2013-02-12 13:32:00,
2013-02-12 07:42:00,26.0,24.0,29.90,ESE,113,0.0,2.0,92,0.00,,,0.00,,2013-02-12 13:42:00,
2013-02-12 07:51:00,28.0,26.0,29.90,SSE,149,2.0,4.0,92,0.00,,,0.00,,2013-02-12 13:51:00,
2013-02-12 08:01:00,32.0,28.0,29.89,South,189,2.0,4.0,86,0.00,,,0.00,,2013-02-12 14:01:00,
2013-02-12 08:11:00,32.0,28.0,29.89,South,189,2.0,4.0,86,0.00,,,0.00,,2013-02-12 14:11:00,
2013-02-12 08:21:00,34.0,29.0,29.89,SW,219,2.0,4.0,81,0.00,,,0.00,,2013-02-12 14:21:00,
2013-02-12 08:32:00,35.0,28.0,29.89,SSW,212,2.0,4.0,76,0.00,,,0.00,,2013-02-12 14:32:00,
2013-02-12 08:52:00,34.0,27.0,29.90,South,183,2.0,6.0,75,0.00,,,0.00,,2013-02-12 14:52:00,
2013-02-12 09:02:00,34.0,28.0,29.91,South,178,2.0,7.0,77,0.00,,,0.00,,2013-02-12 15:02:00,
2013-02-12 09:11:00,34.0,27.0,29.91,South,184,2.0,6.0,76,0.00,,,0.00,,2013-02-12 15:11:00,
2013-02-12 09:21:00,34.0,27.0,29.91,South,184,2.0,6.0,76,0.00,,,0.00,,2013-02-12 15:21:00,
2013-02-12 09:32:00,34.0,27.0,29.91,SSW,199,5.0,8.0,75,0.00,,,0.00,,2013-02-12 15:32:00,
2013-02-12 09:42:00,34.0,27.0,29.91,SSW,199,5.0,8.0,75,0.00,,,0.00,,2013-02-12 15:42:00,
2013-02-12 09:52:00,34.0,28.0,29.92,South,191,2.0,6.0,77,0.00,,,0.00,,2013-02-12 15:52:00,
2013-02-12 10:01:00,35.0,28.0,29.92,South,189,2.0,7.0,76,0.00,,,0.00,,2013-02-12 16:01:00,
2013-02-12 10:11:00,35.0,28.0,29.92,South,189,2.0,7.0,76,0.00,,,0.00,,2013-02-12 16:11:00,
2013-02-12 10:22:00,35.0,28.0,29.91,South,185,2.0,6.0,76,0.00,,,0.00,,2013-02-12 16:22:00,
2013-02-12 10:31:00,38.0,29.0,29.89,SSE,160,2.0,6.0,70,0.00,,,0.00,,2013-02-12 16:31:00,
2013-02-12 10:41:00,38.0,29.0,29.89,SSE,160,2.0,6.0,70,0.00,,,0.00,,2013-02-12 16:41:00,
2013-02-12 10:52:00,40.0,30.0,29.88,SE,131,1.0,5.0,66,0.00,,,0.00,,2013-02-12 16:52:00,
2013-02-12 11:01:00,40.0,29.0,29.87,South,181,2.0,7.0,65,0.00,,,0.00,,2013-02-12 17:01:00,
2013-02-12 11:21:00,39.0,29.0,29.86,South,179,4.0,8.0,66,0.00,,,0.00,,2013-02-12 17:21:00,
2013-02-12 11:32:00,38.0,29.0,29.87,South,179,4.0,8.0,69,0.00,,,0.00,,2013-02-12 17:32:00,
2013-02-12 11:42:00,38.0,29.0,29.87,South,179,4.0,8.0,69,0.00,,,0.00,,2013-02-12 17:42:00,
2013-02-12 11:52:00,38.0,28.0,29.87,South,189,4.0,8.0,68,0.00,,,0.00,,2013-02-12 17:52:00,
2013-02-12 12:01:00,40.0,29.0,29.86,South,189,3.0,8.0,65,0.00,,,0.00,,2013-02-12 18:01:00,
2013-02-12 12:11:00,40.0,29.0,29.86,South,189,3.0,8.0,65,0.00,,,0.00,,2013-02-12 18:11:00,
2013-02-12 12:22:00,42.0,31.0,29.84,South,182,4.0,6.0,64,0.00,,,0.00,,2013-02-12 18:22:00,
2013-02-12 12:32:00,43.0,30.0,29.84,South,191,4.0,6.0,60,0.00,,,0.00,,2013-02-12 18:32:00,
2013-02-12 13:11:00,43.0,30.0,29.84,South,191,4.0,6.0,60,0.00,,,0.00,,2013-02-12 19:11:00,
2013-02-12 20:32:00,35.0,30.0,29.72,SW,233,2.0,3.0,81,0.00,,,0.00,,2013-02-13 02:32:00,
2013-02-12 20:42:00,35.0,30.0,29.72,SW,233,2.0,3.0,81,0.00,,,0.00,,2013-02-13 02:42:00,
2013-02-12 20:52:00,35.0,29.0,29.73,WSW,258,1.0,3.0,79,0.00,,,0.00,,2013-02-13 02:52:00,
2013-02-12 21:01:00,35.0,29.0,29.72,SW,225,0.0,2.0,79,0.00,,,0.00,,2013-02-13 03:01:00,
2013-02-12 21:11:00,35.0,29.0,29.72,North,0,0.0,0.0,80,0.00,,,0.00,,2013-02-13 03:11:00,
2013-02-12 21:21:00,35.0,29.0,29.72,North,0,0.0,0.0,80,0.00,,,0.00,,2013-02-13 03:21:00,
2013-02-12 21:32:00,35.0,30.0,29.72,SW,225,1.0,2.0,81,0.00,,,0.00,,2013-02-13 03:32:00,
2013-02-12 21:41:00,35.0,30.0,29.72,SW,225,1.0,2.0,81,0.00,,,0.00,,2013-02-13 03:41:00,
2013-02-12 21:51:00,35.0,30.0,29.71,SW,228,2.0,4.0,82,0.00,,,0.00,,2013-02-13 03:51:00,
2013-02-12 22:01:00,35.0,30.0,29.71,NNW,328,0.0,2.0,82,0.00,,,0.00,,2013-02-13 04:01:00,
2013-02-12 22:11:00,35.0,30.0,29.71,NNW,328,0.0,2.0,82,0.00,,,0.00,,2013-02-13 04:11:00,
2013-02-12 22:21:00,34.0,29.0,29.70,NNE,30,2.0,2.0,82,0.00,,,0.00,,2013-02-13 04:21:00,
2013-02-12 22:31:00,34.0,30.0,29.70,WNW,294,2.0,3.0,84,0.00,,,0.00,,2013-02-13 04:31:00,
2013-02-12 22:41:00,34.0,30.0,29.70,WNW,294,2.0,3.0,84,0.00,,,0.00,,2013-02-13 04:41:00,
2013-02-12 22:51:00,34.0,30.0,29.70,NNE,24,0.0,3.0,84,0.00,,,0.00,,2013-02-13 04:51:00,
2013-02-12 23:01:00,34.0,30.0,29.70,NW,304,0.0,3.0,84,0.00,,,0.00,,2013-02-13 05:01:00,
2013-02-12 23:11:00,34.0,30.0,29.70,NW,304,0.0,3.0,84,0.00,,,0.00,,2013-02-13 05:11:00,
2013-02-12 23:22:00,34.0,30.0,29.70,North,1,0.0,2.0,84,0.00,,,0.00,,2013-02-13 05:22:00,
2013-02-12 23:31:00,33.0,29.0,29.69,WNW,283,0.0,2.0,84,0.00,,,0.00,,2013-02-13 05:31:00,
2013-02-12 23:42:00,33.0,29.0,29.69,WNW,283,0.0,2.0,84,0.00,,,0.00,,2013-02-13 05:42:00,
2013-02-12 23:52:00,33.0,29.0,29.69,WNW,283,0.0,2.0,84,0.00,,,0.00,,2013-02-13 05:52:00,